Weather in Masli

Russia / Kurgan Oblast     55°12′22″N   63°48′11″E
temp.,
°C
wind,
m/s
gust,
m/s
humid.,
%
clouds,
%
prec.,
mm/h
press.,
hPa
HPBL,
m
28 february, sun
sun2823:00−14se71393100 1.1 1016642
02:00−14se71194100 0.4 1014500
05:00−15ese61094100 0.8 1012383
08:00−17ese61095100 0.1 1011293
11:00−15e6995100 0.2 1010308
14:00−13e5894100 0.1 1009335
17:00−13ene6993100 0.4 1008402
20:00−15ene599498 0.3 1009318
1 march, mon
mon123:00−16ne489699 0.3 1010223
02:00−16nne479698 0.1 1011253
05:00−19n369890 0.2 1013142
08:00−20n469888 0.0 1014180
11:00−18n349686 0.1 1016243
14:00−15n3491100 0.0 1016388
17:00−15nnw2393100 0.1 1017333
20:00−18nnw1298100 0.0 101820
2 march, tue
tue223:00−18w119791 0.1 101820
02:00−20sw229872 0.0 101720
05:00−20sw239874 0.1 101622
08:00−20ssw339865 0.0 101535
11:00−16ssw349470 0.0 1014231
14:00−13s469395 0.0 1012343
17:00−13s589397 0.1 1010341
20:00−16s5109798 0.0 1008197
3 march, wed
wed323:00−15s5109499 0.0 1007255
02:00−16s5109598 0.0 1005249
05:00−11ssw6119399 0.3 1005449
08:00−12ssw6129199 0.1 1004378
11:00−8ssw6129199 0.1 1003541
14:00−3sw71190100 0.1 1002735
17:00−2sw61087100 0.1 1001687
20:00−5ssw499192 0.0 1001193
4 march, thu
thu423:00−7ssw479379 0.0 1002129
02:00−8sw349583 0.0 100177
05:00−8sw339488 0.0 100145
08:00−9w349487 0.0 100156
11:00−6nw479294 0.2 1001419
14:00−6nw5788100 0.0 1002510
17:00−7wnw379066 0.0 1003229
20:00−11wsw34902 0.0 100544